Indian Springs, NV

3:07 AM PST on December 09, 2019 (GMT -0800)
Indian Springs Air Force Auxiliary

Weather History for KINS - November, 2019

Change the Weather History Date:

Tuesday, November 19, 2019

  Actual Average (KDRA) Record (KDRA)
Temperature  
Mean Temperature 54 °F -  
Max Temperature 69 °F 59 °F 74 °F (2008)
Min Temperature 38 °F 37 °F 20 °F (1994)
Degree Days  
Heating Degree Days 12    
Growing Degree Days 4 (Base 50)    
Moisture  
Dew Point 24 °F    
Average Humidity 31    
Maximum Humidity 75    
Minimum Humidity 17    
Precipitation  
Precipitation 0.20 in - - ()
Sea Level Pressure  
Sea Level Pressure 29.59 in    
Wind  
Wind Speed 6 mph ()    
Max Wind Speed 33 mph    
Max Gust Speed 47 mph    
Visibility 10.0 miles    
Events Rain    
Averages and records for this station are not official NWS values.
T = Trace of Precipitation, MM = Missing Value Source: Averaged Metar Reports

Daily Weather History Graph

Daily Weather History Graph

Search for Another Location

Airport or City:

Astronomy

Nov. 19, 2019 Rise Set
Actual Time 6:24 AM PST 4:31 PM PST
Civil Twilight 5:56 AM PST 4:59 PM PST
Nautical Twilight 5:25 AM PST 5:30 PM PST
Astronomical Twilight 4:54 AM PST 6:01 PM PST
Moon 11:30 PM PST (11/19) 12:38 PM PST (11/19)
Length of Visible Light 11h 02m
Length of Day
10h 07m
Waning Gibbous, 50% of the Moon is Illuminated
Nov 19
Waning Gibbous
Nov 19
Last Quarter
Nov 26
New
Dec 3
First Quarter
Dec 11
Full

Hourly Weather History & Observations

Time (PST) Temp. Windchill Dew Point Humidity Pressure Visibility Wind Dir Wind Speed Gust Speed Precip Events Conditions
12:58 AM 45.1 °F - 15.6 °F 31% 29.78 in 10.0 mi Calm Calm - N/A   Clear
1:58 AM 44.2 °F - 14.7 °F 30% 29.76 in 10.0 mi Calm Calm - N/A   Clear
2:58 AM 38.8 °F 34.6 °F 12.9 °F 35% 29.76 in 10.0 mi WSW 5.8 mph - N/A   Clear
3:58 AM 40.6 °F - 13.8 °F 34% 29.75 in 10.0 mi Calm Calm - N/A   Clear
4:58 AM 40.8 °F - 13.3 °F 33% 29.75 in 10.0 mi Calm Calm - N/A   Clear
5:58 AM 40.1 °F - 14.5 °F 35% 29.75 in 10.0 mi Calm Calm - N/A   Clear
6:58 AM 43.7 °F 39.1 °F 16.5 °F 34% 29.75 in 10.0 mi WSW 8.1 mph - N/A   Clear
7:58 AM 44.6 °F 43.1 °F 15.8 °F 31% 29.75 in 10.0 mi NNE 3.5 mph - N/A   Partly Cloudy
8:58 AM 48.2 °F - 16.5 °F 28% 29.75 in 10.0 mi ENE 3.5 mph - N/A   Partly Cloudy
9:58 AM 50.9 °F - 17.2 °F 26% 29.72 in 10.0 mi Calm Calm - N/A   Partly Cloudy
10:58 AM 53.1 °F - 18.1 °F 25% 29.70 in 10.0 mi Calm Calm - N/A   Scattered Clouds
11:36 AM 57.2 °F - 19.4 °F 23% 29.64 in 10.0 mi Calm Calm - N/A   Scattered Clouds
11:58 AM 58.3 °F - 19.6 °F 22% 29.64 in 10.0 mi NNE 5.8 mph - N/A   Scattered Clouds
12:58 PM 59.4 °F - 20.5 °F 22% 29.60 in 10.0 mi South 3.5 mph - N/A   Scattered Clouds
1:44 PM 62.6 °F - 19.4 °F 19% 29.56 in 10.0 mi NNE 5.8 mph - N/A   Scattered Clouds
1:58 PM 62.1 °F - 20.5 °F 20% 29.56 in 10.0 mi Calm Calm - N/A   Scattered Clouds
3:58 PM 65.3 °F - 23.2 °F 20% 29.48 in 10.0 mi North 8.1 mph - N/A   Mostly Cloudy
4:58 PM 69.8 °F - 23.0 °F 17% 29.47 in 10.0 mi SSW 23.0 mph 26.5 mph N/A   Overcast
5:58 PM 69.3 °F - 25.2 °F 19% 29.46 in 10.0 mi SW 17.3 mph - N/A   Scattered Clouds
6:58 PM 68.5 °F - 25.9 °F 20% 29.44 in 10.0 mi SSW 33.4 mph 47.2 mph 0.00 in   Scattered Clouds
7:58 PM 63.3 °F - 35.2 °F 35% 29.44 in 10.0 mi South 29.9 mph 41.4 mph 0.20 in Rain Light Rain
8:10 PM 64.4 °F - 32.0 °F 30% 29.44 in 10.0 mi South 21.9 mph 34.5 mph N/A   Scattered Clouds
8:24 PM 64.4 °F - 32.0 °F 30% 29.44 in 10.0 mi SE 16.1 mph 23.0 mph N/A   Partly Cloudy
8:39 PM 64.4 °F - 32.0 °F 30% 29.43 in 10.0 mi SSE 16.1 mph 28.8 mph N/A   Mostly Cloudy
9:58 PM 60.3 °F - 44.4 °F 56% 29.40 in 10.0 mi SE 3.5 mph - N/A   Scattered Clouds
10:58 PM 57.6 °F - 46.2 °F 66% 29.39 in 10.0 mi ESE 18.4 mph 27.6 mph N/A   Partly Cloudy
11:58 PM 55.0 °F - 47.3 °F 75% 29.38 in 10.0 mi ESE 17.3 mph - N/A   Mostly Cloudy